This is the latest recevied weather packets stored in our database for station/object W4ZHA. If no packets are shown the sender has not sent any weather packets the latest 10 day(s).
| Time | Temp. | Humidity | Pressure | Rain* | Wind** | Luminosity | Snow |
|---|---|---|---|---|---|---|---|
| 1777745331 | 18.89° C | 53% | 1015.1 hPa | 0 mm | - | 464 W/m² | - |
| 1777745028 | 18.89° C | 54% | 1015.1 hPa | 0 mm | - | 502 W/m² | - |
| 1777744723 | 18.33° C | 55% | 1015.5 hPa | 0 mm | - | 371 W/m² | - |
| 1777744418 | 17.78° C | 53% | 1015.5 hPa | 0 mm | - | 379 W/m² | - |
| 1777744115 | 17.22° C | 53% | 1015.5 hPa | 0 mm | - | 270 W/m² | - |
| 1777743812 | 18.33° C | 53% | 1015.5 hPa | 0 mm | - | 282 W/m² | - |
| 1777743509 | 17.22° C | 51% | 1015.5 hPa | 0 mm | - | 297 W/m² | - |
| 1777743206 | 18.33° C | 51% | 1015.5 hPa | 0 mm | - | 360 W/m² | - |
| 1777742904 | 17.78° C | 51% | 1015.5 hPa | 0 mm | - | 361 W/m² | - |
| 1777742601 | 17.78° C | 49% | 1015.8 hPa | 0 mm | - | 531 W/m² | - |
| 1777742296 | 17.78° C | 51% | 1015.8 hPa | 0 mm | - | 529 W/m² | - |
| 1777741994 | 17.78° C | 52% | 1015.8 hPa | 0 mm | - | 546 W/m² | - |
| 1777741691 | 17.22° C | 51% | 1015.8 hPa | 0 mm | - | 468 W/m² | - |
| 1777741386 | 17.22° C | 52% | 1015.8 hPa | 0 mm | - | 400 W/m² | - |
| 1777741083 | 18.33° C | 55% | 1015.8 hPa | 0 mm | - | 537 W/m² | - |
| 1777740780 | 17.22° C | 54% | 1015.8 hPa | 0 mm | - | 267 W/m² | - |
| 1777740477 | 17.22° C | 54% | 1015.8 hPa | 0 mm | - | 298 W/m² | - |
| 1777740174 | 16.67° C | 55% | 1015.8 hPa | 0 mm | - | 302 W/m² | - |
| 1777739869 | 16.67° C | 56% | 1016.1 hPa | 0 mm | - | 435 W/m² | - |
| 1777739567 | 16.67° C | 56% | 1016.1 hPa | 0 mm | - | 235 W/m² | - |
| 1777739264 | 16.11° C | 56% | 1016.5 hPa | 0 mm | - | 219 W/m² | - |
| 1777738960 | 16.67° C | 56% | 1016.5 hPa | 0 mm | - | 372 W/m² | - |
| 1777738658 | 16.67° C | 56% | 1016.5 hPa | 0 mm | - | 231 W/m² | - |
| 1777738354 | 16.67° C | 56% | 1016.5 hPa | 0 mm | - | 274 W/m² | - |
| 1777738052 | 16.11° C | 51% | 1016.5 hPa | 0 mm | - | 254 W/m² | - |
* Rain latest hour (hover to see other rain measurements)
** Current wind speed in m/s (hover to see current wind gust speed)